Weather History for Cordova, AK

Change the Weather History Date:

Wednesday, February 19, 2014

  Actual Average Record
Temperature  
Mean Temperature 24 °F -  
Max Temperature 30 °F 34 °F 48 °F (1963)
Min Temperature 19 °F 20 °F -12 °F (1965)
Degree Days  
Heating Degree Days 40    
Moisture  
Dew Point 21 °F    
Average Humidity 87    
Maximum Humidity 93    
Minimum Humidity 72    
Precipitation  
Precipitation 0.24 in - - ()
Snow  
Snow 0.00 in - - ()
Snow Depth 21.00 in    
Sea Level Pressure  
Sea Level Pressure 29.54 in    
Wind  
Wind Speed 4 mph (East)    
Max Wind Speed 10 mph    
Max Gust Speed -    
Visibility 4 miles    
Events Fog , Snow    
Averages and records for this station are not official NWS values.
T = Trace of Precipitation, MM = Missing Value Source: NWS Daily Summary

Daily Weather History Graph

Daily Weather History Graph

Search for Another Location

Airport:

Trip Planner

Search our weather history database for the weather conditions in past years. The results will help you decide how hot, cold, wet, or windy it might be!

Date:

Astronomy

Feb. 19, 2014 Rise Set
Actual Time 8:09 AM AKST 5:42 PM AKST
Civil Twilight 7:25 AM AKST 6:26 PM AKST
Nautical Twilight 6:36 AM AKST 7:15 PM AKST
Astronomical Twilight 5:47 AM AKST 8:04 PM AKST
Moon No Moon Rise 9:00 AM AKST (2/19)
Length of Visible Light 11h 00m
Length of Day
9h 33m
Waning Gibbous, 78% of the Moon is Illuminated
Feb 19
Waning Gibbous
Feb 22
Last Quarter
Feb 28
New
Mar 8
First Quarter
Mar 16
Full

Hourly Weather History & Observations

Time (AKST) Temp. Windchill Dew Point Humidity Pressure Visibility Wind Dir Wind Speed Gust Speed Precip Events Conditions
12:53 AM 24.1 °F 19.7 °F 17.1 °F 75% 29.44 in 2.5 mi South 3.5 mph - 0.00 in Snow Light Snow
1:04 AM 24.8 °F 19.1 °F 17.6 °F 74% 29.44 in 1.8 mi East 4.6 mph - 0.00 in Snow Light Snow
1:19 AM 23.0 °F 18.4 °F 19.4 °F 86% 29.44 in 0.8 mi ENE 3.5 mph - 0.01 in Snow Light Snow
1:33 AM 23.0 °F 18.4 °F 19.4 °F 86% 29.45 in 0.5 mi ENE 3.5 mph - 0.03 in Fog , Snow Snow
1:53 AM 23.0 °F 15.8 °F 19.9 °F 88% 29.45 in 0.5 mi ENE 5.8 mph - 0.06 in Fog , Snow Snow
1:58 AM 23.0 °F 15.8 °F 19.4 °F 86% 29.45 in 1.0 mi ENE 5.8 mph - 0.00 in Snow Light Snow
2:04 AM 23.0 °F 14.7 °F 19.4 °F 86% 29.45 in 2.0 mi ENE 6.9 mph - 0.01 in Snow Light Snow
2:15 AM 23.0 °F 15.8 °F 21.2 °F 93% 29.45 in 3.0 mi ENE 5.8 mph - 0.01 in Snow Light Snow
2:39 AM 24.8 °F - 21.2 °F 86% 29.46 in 6.0 mi Calm Calm - 0.01 in Snow Light Snow
2:53 AM 24.1 °F - 21.0 °F 88% 29.46 in 2.5 mi Calm Calm - 0.01 in Snow Light Snow
3:08 AM 24.8 °F - 21.2 °F 86% 29.46 in 1.2 mi Calm Calm - 0.01 in Snow Light Snow
3:20 AM 24.8 °F - 21.2 °F 86% 29.46 in 0.8 mi Calm Calm - 0.01 in Snow Light Snow
3:31 AM 24.8 °F - 21.2 °F 86% 29.46 in 1.0 mi Calm Calm - 0.02 in Snow Light Snow
3:53 AM 21.9 °F 15.7 °F 19.9 °F 92% 29.47 in 1.0 mi SE 4.6 mph - 0.03 in Snow Light Snow
4:42 AM 23.0 °F - 21.2 °F 93% 29.47 in 1.5 mi Calm Calm - 0.02 in Snow Light Snow
4:53 AM 23.0 °F - 21.0 °F 92% 29.47 in 1.5 mi Calm Calm - 0.02 in Snow Light Snow
5:53 AM 23.0 °F - 21.0 °F 92% 29.48 in 1.5 mi Calm Calm - 0.02 in Snow Light Snow
6:00 AM 24.8 °F 20.5 °F 21.2 °F 86% 29.48 in 2.5 mi ENE 3.5 mph - 0.00 in Snow Light Snow
6:07 AM 24.8 °F 19.1 °F 21.2 °F 86% 29.48 in 4.0 mi ENE 4.6 mph - 0.00 in Snow Light Snow
6:53 AM 26.1 °F 21.9 °F 23.0 °F 88% 29.49 in 9.0 mi NE 3.5 mph - 0.00 in Snow Light Snow
7:12 AM 26.6 °F 21.2 °F 23.0 °F 86% 29.49 in 2.5 mi ENE 4.6 mph - 0.00 in Snow Light Snow
7:53 AM 25.0 °F - 23.0 °F 92% 29.49 in 2.5 mi Calm Calm - 0.00 in Snow Light Snow
8:00 AM 24.8 °F - 23.0 °F 93% 29.49 in 4.0 mi Calm Calm - 0.00 in Snow Light Snow
8:53 AM 26.1 °F 21.9 °F 23.0 °F 88% 29.50 in 9.0 mi NE 3.5 mph - 0.00 in   Overcast
9:53 AM 19.9 °F 13.4 °F 17.1 °F 89% 29.52 in 8.0 mi South 4.6 mph - 0.00 in Snow Light Snow
10:01 AM 19.4 °F - 17.6 °F 93% 29.52 in 1.8 mi Calm Calm - 0.00 in Snow Light Snow
10:34 AM 21.2 °F - 17.6 °F 86% 29.53 in 2.0 mi Calm Calm - 0.01 in Snow Light Snow
10:53 AM 21.9 °F - 19.0 °F 89% 29.54 in 2.0 mi Calm Calm - 0.01 in Snow Light Snow
11:03 AM 24.8 °F 19.1 °F 21.2 °F 86% 29.54 in 4.0 mi ENE 4.6 mph - 0.00 in Snow Light Snow
11:53 AM 27.0 °F - 24.1 °F 89% 29.55 in 10.0 mi Calm Calm - 0.00 in   Overcast
12:53 PM 28.9 °F 23.9 °F 24.1 °F 82% 29.55 in 10.0 mi ENE 4.6 mph - N/A   Mostly Cloudy
1:53 PM 30.0 °F 24.1 °F 23.0 °F 75% 29.56 in 10.0 mi East 5.8 mph - N/A   Scattered Clouds
2:53 PM 30.0 °F 25.2 °F 21.9 °F 72% 29.56 in 10.0 mi East 4.6 mph - N/A   Mostly Cloudy
3:53 PM 28.9 °F - 23.0 °F 78% 29.56 in 10.0 mi Calm Calm - N/A   Mostly Cloudy
4:53 PM 24.1 °F 17.0 °F 18.0 °F 77% 29.59 in 3.0 mi SSE 5.8 mph - 0.00 in Snow Light Snow
4:55 PM 24.8 °F 17.9 °F 17.6 °F 74% 29.59 in 1.5 mi South 5.8 mph - 0.00 in Snow Light Snow
4:58 PM 24.8 °F 14.6 °F 19.4 °F 80% 29.59 in 0.8 mi South 10.4 mph - 0.00 in Snow Light Snow
5:08 PM 24.8 °F 17.9 °F 21.2 °F 86% 29.59 in 0.8 mi East 5.8 mph - 0.01 in Snow Light Snow
5:18 PM 26.6 °F 17.5 °F 23.0 °F 86% 29.59 in 0.8 mi SE 9.2 mph - 0.02 in Snow Light Snow
5:37 PM 26.6 °F 17.5 °F 24.8 °F 93% 29.59 in 0.2 mi ESE 9.2 mph - 0.04 in Fog , Snow Heavy Snow
5:45 PM 26.6 °F 17.5 °F 24.8 °F 93% 29.59 in 0.2 mi East 9.2 mph - 0.06 in Fog , Snow Heavy Snow
5:48 PM 26.6 °F 20.0 °F 24.8 °F 93% 29.59 in 0.2 mi East 5.8 mph - 0.06 in Fog , Snow Heavy Snow
5:53 PM 26.1 °F 20.5 °F 24.1 °F 92% 29.59 in 0.5 mi Variable 4.6 mph - 0.07 in Fog , Snow Snow
6:06 PM 26.6 °F 22.6 °F 24.8 °F 93% 29.58 in 2.0 mi ENE 3.5 mph - 0.01 in Snow Light Snow
6:18 PM 26.6 °F 22.6 °F 24.8 °F 93% 29.58 in 5.0 mi East 3.5 mph - 0.01 in Snow Light Snow
6:53 PM 26.1 °F 21.9 °F 23.0 °F 88% 29.59 in 10.0 mi NE 3.5 mph - 0.01 in   Mostly Cloudy
7:53 PM 26.1 °F 21.9 °F 21.0 °F 81% 29.61 in 10.0 mi SE 3.5 mph - 0.00 in Snow Light Snow
8:06 PM 26.6 °F 22.6 °F 21.2 °F 80% 29.61 in 3.0 mi SE 3.5 mph - 0.00 in Snow Light Snow
8:14 PM 26.6 °F 22.6 °F 23.0 °F 86% 29.61 in 1.0 mi East 3.5 mph - 0.00 in Snow Light Snow
8:25 PM 26.6 °F 20.0 °F 23.0 °F 86% 29.61 in 3.0 mi East 5.8 mph - 0.00 in Snow Light Snow
8:53 PM 25.0 °F 20.7 °F 23.0 °F 92% 29.61 in 10.0 mi ENE 3.5 mph - 0.00 in   Overcast
9:00 PM 24.8 °F 17.9 °F 21.2 °F 86% 29.61 in 10.0 mi NE 5.8 mph - N/A   Scattered Clouds
9:53 PM 24.1 °F 16.0 °F 19.9 °F 84% 29.63 in 10.0 mi SE 6.9 mph - 0.00 in   Scattered Clouds
10:06 PM 24.8 °F 17.9 °F 21.2 °F 86% 29.63 in 1.0 mi SE 5.8 mph - 0.00 in Snow Light Snow
10:08 PM 24.8 °F 19.1 °F 21.2 °F 86% 29.63 in 0.8 mi SE 4.6 mph - 0.00 in Snow Light Snow
10:10 PM 24.8 °F 19.1 °F 21.2 °F 86% 29.63 in 0.8 mi SSE 4.6 mph - 0.01 in Snow Light Snow
10:26 PM 24.8 °F - 23.0 °F 93% 29.64 in 2.0 mi Calm Calm - 0.01 in Snow Light Snow
10:34 PM 24.8 °F - 21.2 °F 86% 29.64 in 9.0 mi Calm Calm - 0.01 in   Overcast
10:53 PM 25.0 °F 18.1 °F 21.9 °F 88% 29.64 in 10.0 mi NNE 5.8 mph - 0.01 in   Scattered Clouds
11:53 PM 19.0 °F 13.9 °F 17.1 °F 92% 29.66 in 10.0 mi SSE 3.5 mph - N/A   Mostly Cloudy